Wind_Speed
8 12 17 19 20 20 20 20 21 26 28 31 33 35 39 41 42 39 37 36 35 37 35 39 33 17 29 29 27 27 22 23 27 25 16 9 8 16 14 13 14 14 11
3 7 12 16 17 21 20 19 22 22 25 27 30 32 37 37 39 39 39 39 37 37 35 34 32 31 31 32 33 33 32 29 33 34 30 28 27 24 22 21 18 14 11
1 4 4 10 15 18 20 19 17 17 20 24 26 28 27 32 34 34 38 39 38 38 36 34 31 31 32 33 36 36 36 34 33 32 33 38 36 29 21 20 19 18 19
8 4 5 5 9 14 17 17 17 16 15 19 23 23 24 24 30 35 36 35 35 36 34 34 35 35 34 34 36 36 37 38 33 32 31 23 8 25 32 36 28 27 28
19 8 7 6 6 7 10 13 14 15 12 15 18 21 23 23 26 32 32 31 33 34 30 32 35 34 36 39 39 39 39 38 38 34 29 32 34 24 24 30 30 38 38
25 16 12 8 6 7 7 7 9 14 12 11 12 15 14 17 18 15 25 27 30 30 32 34 33 33 34 36 37 40 41 41 42 37 31 18 26 30 41 20 1 26 23
30 24 14 14 12 7 5 6 6 5 9 8 9 11 13 12 7 12 7 12 24 28 30 31 33 35 37 37 37 37 38 41 43 41 36 31 30 33 21 8 3 12 11
36 31 21 17 17 10 6 2 5 3 5 3 1 7 14 12 6 10 6 8 18 17 23 25 27 31 33 37 38 37 36 37 36 42 41 36 33 33 29 24 19 24 20
39 36 32 21 18 20 14 9 6 5 4 5 3 3 7 8 2 6 2 21 5 7 15 16 19 20 23 24 29 33 37 36 35 32 40 37 34 33 30 28 29 26 24
49 44 39 27 20 23 23 16 13 9 8 5 4 7 7 6 4 5 5 2 8 10 10 10 9 14 16 20 24 25 29 31 38 34 31 36 33 29 29 24 25 25 29
56 46 41 32 22 25 25 24 23 19 16 15 6 8 10 13 11 9 8 5 10 6 2 7 4 4 11 16 18 19 21 23 29 33 32 31 32 33 26 23 18 17 19
52 52 49 36 28 25 36 40 33 30 22 19 15 12 11 15 17 15 13 11 10 10 8 5 5 3 1 8 15 14 13 14 18 24 27 30 30 30 31 27 18 11 10
61 59 53 47 36 30 22 44 46 42 31 22 23 23 21 20 22 22 18 18 15 14 15 12 10 5 6 4 7 12 12 10 11 12 18 24 25 24 23 26 27 22 10
76 66 59 54 49 37 40 33 47 35 27 22 37 30 30 28 28 30 28 25 22 18 19 18 17 11 7 6 7 8 12 10 9 9 10 13 19 20 20 21 22 21 24
75 74 70 64 61 59 59 59 40 47 43 38 38 31 37 36 34 32 32 32 31 28 23 22 21 18 16 13 11 13 16 15 12 13 12 11 13 16 20 17 18 20 21
64 71 75 75 72 71 67 65 67 62 57 51 52 51 43 43 34 36 35 32 30 32 32 31 29 26 25 23 22 14 15 17 18 20 18 18 18 16 21 23 19 17 18
64 72 69 71 76 73 70 65 68 69 66 62 56 54 49 50 41 38 37 34 31 32 32 35 35 35 33 32 31 32 30 27 26 24 21 23 22 23 25 25 25 23 20
92 82 73 73 75 75 73 74 71 68 66 58 61 61 54 55 55 48 46 39 35 36 32 34 35 36 38 38 40 40 40 39 37 31 28 30 30 31 31 32 35 32 30
91 98 93 74 79 76 78 80 74 70 67 65 60 65 63 62 63 57 56 54 56 53 54 51 51 50 49 47 47 51 51 50 49 46 42 39 37 36 36 35 34 33 36
118 103 95 101 91 76 80 87 81 78 78 71 68 66 71 69 69 68 64 62 61 60 62 61 55 57 55 54 53 54 53 55 55 55 56 52 49 47 42 42 41 40 41
82 108 102 98 99 105 89 83 91 85 77 76 76 78 74 70 72 73 73 68 69 68 66 67 66 65 60 58 60 61 61 59 59 58 59 60 61 56 54 53 49 51 47
102 100 113 107 100 87 98 98 89 90 95 87 83 83 81 79 80 80 78 76 74 74 74 71 71 72 68 65 61 65 69 70 70 70 70 70 69 67 63 60 63 58 56
104 115 103 108 114 112 96 98 96 89 103 104 101 95 90 82 84 82 85 87 87 84 83 85 80 78 79 78 75 73 72 76 79 77 76 75 75 74 72 67 65 66 66
112 105 107 109 110 117 116 110 104 105 97 94 91 96 94 86 90 89 86 91 90 84 87 84 85 86 84 81 80 83 79 80 83 84 81 80 80 77 75 67 61 61 64
106 107 109 108 109 111 115 118 115 115 113 107 109 104 108 102 101 98 93 92 84 79 82 86 86 86 86 85 92 87 87 83 86 88 85 81 80 78 75 78 72 67 68
101 103 103 105 109 110 110 111 111 116 122 118 113 113 116 117 115 112 111 112 107 105 103 103 98 96 91 91 89 91 92 92 92 94 95 95 89 84 85 85 87 87 93
Wind_Direction
77 71 81 80 80 77 76 63 63 63 70 66 58 55 58 60 60 61 65 66 65 66 65 66 71 41 50 54 56 55 56 49 40 36 46 75 99 98 90 84 76 75 56
105 73 87 86 85 80 77 74 67 70 66 54 57 60 59 59 59 60 61 62 61 63 64 65 69 63 58 54 55 54 53 51 51 53 68 91 93 84 84 83 72 54 26
238 153 119 92 86 92 79 76 74 74 71 59 58 56 57 59 60 61 63 63 62 64 68 67 61 59 57 55 54 53 53 51 58 65 75 86 85 76 70 65 65 56 45
244 224 183 140 102 93 91 78 71 72 77 69 60 56 52 46 56 59 56 52 58 60 61 65 66 64 58 57 57 57 55 56 60 64 71 74 76 67 71 54 52 59 59
243 234 211 183 135 109 86 86 74 74 72 68 65 67 62 53 58 58 51 48 48 51 51 54 61 59 59 59 59 59 59 59 60 62 73 77 69 66 84 43 48 81 44
233 228 219 196 162 119 106 87 67 74 63 63 63 70 80 67 61 76 54 53 57 60 51 49 52 54 52 50 51 55 59 58 61 62 66 76 62 74 83 72 348 83 49
230 231 223 227 208 172 119 96 87 47 74 64 79 71 94 92 81 76 74 63 55 52 50 55 52 57 57 57 53 46 48 49 58 64 72 76 71 82 119 161 158 67 134
229 233 235 231 228 207 221 177 61 43 17 79 38 90 120 114 117 84 84 76 46 47 44 47 53 54 57 57 55 53 48 48 51 58 61 67 65 72 82 88 85 110 134
231 228 241 244 230 222 219 227 249 273 330 343 271 260 151 149 136 92 129 93 87 315 31 39 36 45 48 51 54 55 58 58 55 56 60 64 70 69 70 73 79 99 108
231 238 240 241 223 235 226 220 235 248 266 273 268 270 259 212 220 179 163 205 218 288 148 320 22 45 41 52 56 58 60 61 58 58 58 59 63 70 74 88 110 119 137
234 234 230 231 235 226 231 245 258 256 266 248 230 252 248 240 231 227 221 174 196 243 250 305 7 41 52 52 46 58 56 55 56 54 56 59 59 61 66 73 89 120 127
229 232 230 228 236 239 249 244 249 245 255 244 247 246 254 243 244 243 241 236 255 262 288 300 336 227 29 48 37 28 46 47 50 56 51 49 56 55 58 58 66 92 127
230 234 233 232 231 236 240 256 253 250 249 246 256 262 262 261 245 250 251 260 245 253 265 272 287 304 294 4 356 0 15 15 30 39 37 35 30 50 54 47 46 47 54
237 233 233 239 235 244 207 254 234 239 243 229 265 262 264 264 265 253 253 256 258 254 256 264 265 273 288 306 279 303 317 326 351 347 350 7 24 16 23 23 23 24 23
233 240 238 240 239 235 231 237 247 236 251 259 258 259 261 264 270 255 255 257 259 261 263 271 273 277 279 288 291 272 279 289 297 320 325 316 329 359 3 8 358 3 7
231 237 242 244 243 244 242 247 245 249 260 259 265 265 259 264 257 257 257 260 256 259 263 266 270 267 266 269 276 265 275 296 293 294 302 309 310 307 333 338 339 349 343
219 230 241 246 246 243 245 247 247 245 248 256 255 257 256 256 256 248 249 251 251 255 260 261 262 263 273 266 269 271 278 289 287 287 287 292 296 293 295 300 308 319 321
229 226 228 237 240 245 246 246 250 252 253 246 248 248 251 254 259 254 245 244 243 251 253 258 265 272 266 266 269 271 275 277 282 284 281 287 288 287 284 286 289 291 299
226 230 228 228 235 238 245 248 249 248 249 248 250 249 247 256 254 256 250 250 250 253 256 260 268 272 273 272 267 266 267 271 274 278 278 281 286 283 280 284 285 281 286
226 223 231 230 230 229 239 244 247 248 251 251 250 247 246 248 250 252 254 257 258 258 256 256 256 268 270 274 274 275 274 274 274 274 276 279 281 283 278 280 281 286 286
235 223 228 226 231 236 237 232 242 241 239 242 246 252 247 244 247 250 251 255 259 260 261 261 261 264 261 263 265 271 271 271 274 274 274 276 277 278 280 282 281 284 281
235 234 229 230 232 234 235 235 236 235 232 236 242 246 242 249 251 253 252 251 254 256 259 261 263 264 261 263 263 269 268 267 267 270 272 272 274 276 278 282 282 281 280
236 232 237 233 234 235 232 232 236 236 234 240 245 247 246 247 251 245 253 257 254 254 256 261 260 259 263 266 265 268 266 272 269 270 272 275 274 273 275 276 279 281 279
238 236 238 237 237 234 235 236 238 236 238 242 245 240 238 243 245 244 251 250 254 257 257 255 257 256 259 259 262 268 268 269 271 272 271 273 272 274 274 275 273 272 273
238 239 238 238 239 239 239 239 240 239 240 242 247 248 242 244 246 246 244 243 244 245 249 251 254 255 256 261 261 263 265 263 266 269 267 266 268 268 262 270 267 263 267
241 241 240 241 242 242 243 243 242 240 242 247 247 250 252 252 255 247 248 250 251 252 252 253 250 253 253 257 255 260 266 263 261 263 264 264 262 263 267 264 265 267 269
Height
11020 11018 11015 11014 11012 11012 11013 11013 11012 11010 11008 11005 11004 11002 10999 10996 10993 10992 10990 10987 10987 10984 10979 10974 10970 10976 10973 10970 10967 10962 10959 10956 10952 10945 10942 10944 10948 10952 10956 10958 10960 10962 10962
11021 11022 11020 11018 11016 11015 11016 11017 11016 11015 11014 11012 11010 11009 11008 11005 11002 11000 10997 10994 10993 10990 10988 10983 10983 10980 10978 10978 10972 10967 10963 10961 10955 10949 10944 10944 10952 10957 10957 10958 10960 10964 10964
11021 11022 11023 11021 11020 11019 11019 11020 11020 11020 11019 11017 11015 11015 11014 11012 11010 11008 11006 11003 11000 10998 10998 10994 10991 10990 10988 10984 10978 10974 10970 10966 10961 10956 10952 10953 10956 10959 10962 10962 10961 10965 10970
11021 11023 11024 11024 11023 11023 11023 11024 11023 11023 11023 11023 11021 11019 11019 11017 11017 11015 11014 11013 11010 11007 11005 11001 10998 10996 10993 10991 10986 10981 10977 10973 10968 10965 10963 10959 10961 10965 10970 10973 10971 10969 10970
11020 11022 11024 11025 11026 11026 11027 11027 11027 11026 11026 11025 11026 11025 11023 11024 11022 11019 11018 11018 11017 11016 11014 11009 11004 11002 10999 10996 10993 10990 10986 10981 10978 10973 10970 10969 10969 10973 10978 10997 10980 10970 10964
11017 11021 11024 11026 11027 11028 11030 11031 11031 11029 11029 11027 11028 11030 11029 11029 11025 11021 11025 11024 11021 11019 11020 11018 11013 11009 11004 11002 11000 10999 10995 10990 10987 10981 10976 10976 10978 10981 10985 10965 11005 10979 10977
11015 11019 11022 11025 11028 11030 11031 11033 11034 11033 11032 11031 11031 11033 11035 11033 11028 11027 11029 11027 11025 11027 11024 11025 11022 11018 11013 11010 11006 11004 11004 11000 10996 10992 10988 10984 10982 10982 10985 10997 10990 10976 10978
11010 11017 11021 11024 11027 11030 11031 11033 11034 11034 11035 11034 11034 11036 11037 11037 11033 11033 11032 11030 11030 11033 11031 11029 11029 11026 11022 11018 11014 11011 11010 11008 11006 11002 10998 10997 10992 10993 10998 10995 10987 10980 10986
11006 11012 11018 11022 11024 11026 11029 11030 11033 11034 11035 11036 11035 11037 11037 11037 11036 11036 11035 11035 11041 11040 11037 11035 11034 11030 11028 11025 11023 11020 11018 11016 11014 11010 11007 11006 11005 11002 11001 10999 10997 10994 10995
10999 11007 11013 11018 11020 11022 11026 11028 11028 11031 11033 11034 11034 11037 11038 11037 11035 11036 11037 11036 11038 11041 11045 11041 11038 11034 11030 11028 11026 11026 11026 11026 11022 11016 11011 11008 11008 11007 11007 11007 11009 11011 11013
10993 11000 11008 11013 11016 11020 11022 11025 11028 11030 11030 11031 11032 11033 11037 11039 11037 11036 11037 11037 11038 11038 11037 11038 11036 11036 11034 11032 11029 11028 11029 11033 11032 11026 11020 11014 11012 11010 11009 11010 11014 11016 11015
10983 10990 11000 11008 11012 11016 11018 11017 11021 11026 11026 11028 11029 11030 11034 11038 11039 11038 11038 11038 11038 11036 11036 11036 11036 11036 11035 11034 11030 11031 11032 11035 11036 11033 11030 11026 11021 11018 11017 11015 11014 11013 11012
10975 10981 10992 11002 11009 11018 11011 11014 11017 11019 11022 11022 11025 11026 11029 11033 11037 11038 11037 11039 11039 11038 11039 11036 11036 11035 11034 11031 11031 11034 11034 11035 11036 11035 11033 11030 11029 11025 11022 11020 11018 11016 11015
10964 10973 10985 10993 11004 11008 11016 11014 11004 11011 11010 11018 11020 11021 11023 11026 11029 11031 11034 11034 11035 11036 11037 11036 11035 11034 11031 11029 11030 11032 11033 11033 11034 11032 11032 11031 11031 11029 11028 11025 11024 11021 11020
10957 10960 10974 10984 10993 11003 11011 10994 10998 11001 11005 11006 11012 11015 11019 11021 11022 11023 11025 11027 11029 11030 11030 11030 11030 11029 11026 11026 11027 11030 11031 11031 11030 11028 11029 11028 11027 11028 11027 11027 11026 11023 11021
10946 10952 10958 10969 10977 10984 10989 10990 10991 10995 10997 10999 11002 11005 11011 11014 11016 11017 11017 11017 11019 11020 11021 11021 11023 11023 11023 11026 11027 11028 11028 11029 11027 11027 11026 11025 11024 11025 11024 11024 11023 11022 11020
10936 10937 10947 10954 10960 10966 10971 10974 10976 10979 10984 10986 10990 10995 11002 11004 11009 11011 11010 11009 11011 11012 11012 11013 11014 11016 11017 11021 11023 11023 11023 11023 11022 11022 11022 11019 11020 11020 11020 11019 11019 11018 11017
10923 10932 10933 10937 10943 10948 10954 10959 10960 10962 10967 10975 10980 10985 10989 10993 10997 11002 11002 11001 11002 11003 11004 11004 11004 11009 11011 11014 11015 11015 11015 11015 11015 11015 11015 11013 11015 11013 11013 11013 11011 11012 11011
10897 10912 10924 10928 10931 10936 10941 10944 10948 10950 10956 10965 10968 10973 10977 10980 10983 10986 10988 10990 10992 10994 10993 10993 10997 10998 11000 11003 11005 11005 11005 11005 11003 11005 11005 11005 11005 11006 11005 11004 11004 11003 11003
10870 10885 10903 10912 10919 10923 10923 10932 10934 10942 10945 10949 10953 10957 10961 10965 10967 10970 10971 10974 10977 10979 10981 10982 10984 10984 10985 10988 10991 10992 10991 10993 10994 10994 10992 10993 10994 10994 10994 10994 10994 10993 10993
10848 10865 10876 10886 10894 10905 10910 10912 10918 10926 10928 10928 10933 10936 10941 10945 10951 10953 10957 10960 10960 10962 10965 10967 10969 10970 10972 10973 10975 10976 10978 10980 10978 10980 10979 10981 10981 10982 10981 10982 10982 10982 10981
10834 10847 10858 10866 10870 10879 10891 10894 10896 10901 10909 10913 10915 10917 10920 10926 10931 10935 10940 10943 10945 10947 10949 10951 10951 10954 10956 10959 10960 10962 10963 10964 10966 10965 10965 10966 10966 10966 10967 10967 10967 10967 10967
10811 10827 10837 10845 10852 10862 10868 10873 10879 10880 10887 10891 10896 10901 10903 10905 10909 10914 10919 10922 10925 10927 10930 10933 10935 10937 10938 10939 10941 10943 10944 10945 10947 10947 10948 10948 10950 10951 10950 10950 10951 10950 10950
10794 10802 10812 10820 10828 10836 10841 10850 10857 10862 10867 10873 10877 10881 10885 10890 10889 10893 10895 10899 10903 10907 10910 10913 10914 10916 10918 10921 10923 10923 10924 10925 10925 10926 10928 10930 10929 10931 10931 10931 10931 10931 10931
10770 10778 10788 10795 10802 10811 10817 10825 10835 10839 10846 10851 10855 10862 10866 10865 10872 10875 10871 10877 10880 10883 10887 10890 10890 10897 10895 10901 10901 10902 10904 10906 10908 10910 10907 10908 10910 10910 10912 10912 10914 10913 10912
10746 10754 10763 10772 10779 10786 10792 10799 10807 10815 10822 10826 10831 10836 10839 10839 10841 10847 10847 10854 10858 10864 10868 10869 10867 10870 10871 10875 10877 10878 10879 10882 10884 10887 10887 10887 10890 10889 10891 10890 10889 10891 10891